Regional Weather Roundup
Issued by NWS

Home | Current Version | Previous Version | Graphics & Text | Print | Product List | Glossary On
Versions: 1 2 3 4 5 6 7 8 9 10 11 12 13 14 15 16 17 18 19 20 21 22 23 24 25 26 27 28 29 30 31 32 33 34 35 36 37 38 39 40 41 42 43 44 45 46 47 48 49 50
000
ASUS43 KOAX 190502
RWRNE

WEATHER ROUNDUP FOR NEBRASKA
NATIONAL WEATHER SERVICE OMAHA NE
1100 PM CST SAT NOV 18 2017

NOTES: SATELLITE DATA IS BEING USED TO AUGMENT CLOUD COVER ABOVE
       12000 FEET.
       "FAIR" INDICATES FEW OR NO CLOUDS BELOW 12,000 FEET WITH NO
       SIGNIFICANT WEATHER AND/OR OBSTRUCTIONS TO VISIBILITY.


NEZ001>004-019>022-054>056-190600-
NEBRASKA PANHANDLE

CITY           SKY/WX    TMP DP  RH WIND       PRES   REMARKS
SCOTTSBLUFF    CLOUDY    21  13  71 N3        30.22S
ALLIANCE       CLEAR     15  12  88 W6        30.21R WCI   6
CHADRON        CLOUDY    24  18  77 W9        30.19F WCI  14
GORDON         FAIR      22  17  79 W3        30.17F
KIMBALL        CLEAR     21  17  81 W5        30.22S WCI  15
SIDNEY         CLEAR     20  14  77 W9        30.23F WCI   9
$$

NEZ057>060-069>072-079>082-190600-
SOUTHWEST NEBRASKA

CITY           SKY/WX    TMP DP  RH WIND       PRES   REMARKS
NORTH PLATTE   CLEAR     22  17  81 NW7       30.23S WCI  13
IMPERIAL       CLEAR     29  16  58 W7        30.26R WCI  22
LEXINGTON      CLEAR     26  21  83 W7        30.23S WCI  18
MCCOOK         CLEAR     28  22  78 W7        30.26R WCI  21
OGALLALA       CLEAR     24  18  78 CALM      30.23F
$$

NEZ005>010-023>029-035>040-094-190600-
NORTH CENTRAL NEBRASKA

CITY           SKY/WX    TMP DP  RH WIND       PRES   REMARKS
VALENTINE      CLOUDY    28  21  75 W7        30.17F WCI  21
AINSWORTH      CLOUDY    31  25  78 W7        30.17S WCI  24
BROKEN BOW     CLEAR     28  20  71 SE3       30.20S
ORD            CLEAR     30  23  75 W6        30.20R WCI  24
THEDFORD       CLOUDY    26  21  80 W3        30.21S
$$

NEZ041-046>049-061>064-073>077-083>087-190600-
SOUTH CENTRAL NEBRASKA

CITY           SKY/WX    TMP DP  RH WIND       PRES   REMARKS
GRAND ISLAND   CLEAR     30  25  81 W7        30.23R WCI  23
AURORA         CLEAR     28  23  82 W7        30.22S WCI  21
HASTINGS       CLEAR     29  22  75 W5        30.24R WCI  24
HEBRON         CLEAR     31  25  78 W5        30.24S WCI  26
HOLDREGE       CLEAR     32  23  69 W6        30.23S WCI  26
KEARNEY        CLEAR     33  22  63 W6        30.23S WCI  28
YORK           CLEAR     27  27 100 CALM      30.22S
$$

NEZ011>018-030>034-042>045-190600-
NORTHEAST NEBRASKA

CITY           SKY/WX    TMP DP  RH WIND       PRES   REMARKS
NORFOLK        CLEAR     24  20  84 W5        30.19R WCI  18
ALBION         CLEAR     28  23  82 CALM      30.20S
BLAIR          CLEAR     29  23  77 NW7       30.18S WCI  22
COLUMBUS       CLEAR     25  21  85 W5        30.22R WCI  19
FREMONT        CLEAR     25  21  87 CALM      30.20F
TEKAMAH        CLEAR     28  21  75 NW8       30.20R WCI  20
WAYNE          PTCLDY    26  20  78 W3        30.19R
$$

NEZ050>053-065>068-078-088>093-190600-
SOUTHEAST NEBRASKA

CITY           SKY/WX    TMP DP  RH WIND       PRES   REMARKS
LINCOLN        CLEAR     32  24  72 W6        30.23R WCI  26
OMAHA EPPLEY   CLEAR     32  21  64 NW12      30.20R WCI  23
BEATRICE       CLEAR     29  26  88 W9        30.22R WCI  20
FALLS CITY     CLEAR     31  25  78 NW7       30.21R WCI  24
NEBRASKA CITY  CLEAR     30  26  85 NW9       30.20S WCI  22
PLATTSMOUTH    CLEAR     31  25  77 NW9       30.20R WCI  23
$$

NEZ044-045-051>053-067-190600-
OMAHA AREA

CITY           SKY/WX    TMP DP  RH WIND       PRES   REMARKS
OMAHA EPPLEY   CLEAR     32  21  64 NW12      30.20R WCI  23
BLAIR          CLEAR     29  23  77 NW7       30.18S WCI  22
FREMONT        CLEAR     25  21  87 CALM      30.20F
MILLARD        CLEAR     33  24  68 NW5       30.20S WCI  28
OFFUTT AFB     CLEAR     29  21  73 NW7       30.20R WCI  22
PLATTSMOUTH    CLEAR     31  25  77 NW9       30.20R WCI  23
WAHOO          FAIR      31  24  76 NW7       30.21S WCI  24
$$




USA.gov is the U.S. government's official web portal to all federal, state and local government web resources and services.